[[{"header":{"parameterUnit":"m.s-1","parameterCategory":1,"la1":30.2991,"la2":30.254,"lo1":-89.0895,"lo2":-89.0444,"dy":0.0017,"dx":0.0017,"nx":28,"ny":28,"refTime":"2023-06-27T21:00:00:Z","depth":0,"parameterNumber":2,"parameterNumberName":"U-component_of_WINDS"},"data":[0,0,0,0,0,0,0,0,0,0,0,0,0,0,0,0,0,0,0,0,0,0,0,0,0,0,0,0,0,0,0,0,0,0,0,0,0,0,0,0,0,0,0,0,0,0,0,0,0,0,0,0,0,0,0,0,0,0,1.3291,1.3292,0,1.3381,1.3382,1.3383,1.3297,1.3293,1.329,1.3287,1.3384,1.339,1.3395,0,0,0,0,0,0,0,0,0,0,0,0,0,1.3048,1.3053,1.3291,1.3292,1.3293,1.3381,1.3382,1.3384,1.3297,1.3293,1.3289,1.3285,1.3382,1.3389,1.3396,0,0,0,0,0,0,0,0,0,0,0,0,0,1.3148,1.3055,1.3291,1.3261,1.3259,1.3381,1.3383,1.3384,1.3298,1.3293,1.3288,1.3283,1.338,1.3388,1.3397,1.3555,0,0,1.3424,1.3427,0,0,0,0,0,0,0,0,1.3142,1.3157,1.3264,1.3263,1.3261,1.3322,1.3332,1.3442,1.33,1.3284,1.3287,1.3281,1.3368,1.3377,1.3406,1.356,1.3564,1.3424,1.343,1.3434,1.3436,0,0,0,0,0,0,0,1.3135,1.3152,1.3327,1.3266,1.3264,1.3244,1.3253,1.3353,1.3354,1.3284,1.3278,1.329,1.3366,1.3398,1.3408,1.3565,1.3424,1.3432,1.3437,1.3441,1.3854,1.386,0,0,0,0,0,0,1.3131,1.3147,1.3324,1.3329,1.3187,1.3253,1.3262,1.3308,1.3353,1.3354,1.3294,1.3286,1.3385,1.3398,1.3411,1.36,1.3433,1.3442,1.3447,1.3849,1.3856,1.3862,0,0,0,0,0,0,1.3126,1.3148,1.332,1.3237,1.3257,1.3262,1.3315,1.3313,1.3344,1.336,1.336,1.3326,1.3382,1.3398,1.352,1.3602,1.3446,1.3454,1.3842,1.3851,1.3859,1.3978,0,0,0,0,0,0,1.312,1.3146,1.3205,1.3239,1.3262,1.3427,1.332,1.3318,1.3359,1.3348,1.339,1.3392,1.3379,1.3507,1.3528,1.3611,1.346,1.3835,1.3846,1.3856,1.3967,1.399,1.401,0,0,0,0,0,1.3111,1.3236,1.3209,1.3231,1.3335,1.3431,1.3445,1.3426,1.3365,1.3426,1.3436,1.339,1.3589,1.352,1.3544,1.363,1.3829,1.3843,1.3855,1.3958,1.3985,1.4009,0,0,0,0,0,0,1.3214,1.324,1.321,1.3349,1.3389,1.3417,1.3492,1.3456,1.3515,1.3503,1.3479,1.3489,1.3618,1.3636,1.3559,1.3786,1.37,1.3718,1.377,1.3796,1.3817,1.3811,1.3468,0,0,0,0,0,1.3252,1.3327,1.3346,1.3467,1.3488,1.3487,1.3528,1.351,1.3551,1.3568,1.3587,1.363,1.3701,1.375,1.3817,1.3969,1.3978,1.404,1.4061,1.4078,1.4095,1.4178,1.4207,1.3904,1.3904,1.3904,0,0,1.3333,1.3357,1.3405,1.3488,1.3517,1.3596,1.3502,1.3589,1.3648,1.3581,1.3697,1.3713,1.3759,1.3897,1.3958,1.3916,1.418,1.4095,1.4109,1.4116,1.4194,1.4223,1.4249,1.3913,1.3911,1.391,0,0,1.3521,1.3546,1.365,1.368,1.3724,1.3722,1.3748,1.3782,1.3789,1.3904,1.3856,1.3927,1.4051,1.4086,1.412,1.4322,1.4283,1.4345,1.4456,1.4538,1.4562,1.4583,1.4656,1.4683,1.4361,1.4361,1.4362,0,1.3617,1.3732,1.3708,1.3799,1.3838,1.378,1.3886,1.3917,1.3982,1.4011,1.3961,1.4116,1.4143,1.4289,1.4338,1.4367,1.4397,1.4341,1.456,1.4581,1.46,1.467,1.4698,1.4369,1.4368,1.4367,1.4366,0,1.3848,1.393,1.4009,1.4071,1.4119,1.4217,1.4209,1.4261,1.4239,1.4243,1.4362,1.4392,1.4465,1.4498,1.4478,1.4642,1.4614,1.4563,1.4476,1.4637,1.4702,1.4728,1.4379,1.4377,1.4374,1.4373,0,0,1.4104,1.4152,1.4181,1.4209,1.4254,1.4317,1.4414,1.4483,1.4529,1.4575,1.4657,1.4763,1.4716,1.4755,1.4739,1.481,1.497,1.475,1.4751,1.4791,1.5154,1.5193,1.5224,1.4944,1.4949,1.4953,1.5151,0,1.4294,1.446,1.4442,1.4601,1.4676,1.4623,1.4707,1.4744,1.4751,1.4818,1.4825,1.4902,1.4833,1.4857,1.4925,1.4936,1.5043,1.4922,1.5021,1.5025,1.5012,1.5258,1.5299,1.5485,1.5176,1.518,1.5183,0,1.4538,1.4593,1.4759,1.4793,1.4824,1.49,1.4963,1.5027,1.5069,1.5069,1.5113,1.5084,1.5182,1.5093,1.5229,1.5147,1.5187,1.5199,1.5206,1.5215,1.5115,1.5276,1.5543,1.5572,1.5223,1.522,1.5217,0,1.471,1.4825,1.4939,1.4965,1.5007,1.5062,1.5082,1.5119,1.5162,1.5218,1.5246,1.5313,1.535,1.5403,1.5394,1.5329,1.5534,1.5443,1.5538,1.5539,1.5585,1.5582,1.5864,1.5609,1.5608,1.5608,1.5607,0,1.4925,1.5029,1.5017,1.5088,1.5204,1.5182,1.5298,1.5311,1.5345,1.5418,1.5376,1.5446,1.5429,1.55,1.5493,1.5608,1.5625,1.5629,1.5626,1.5633,1.5633,1.566,1.5647,1.5615,1.5613,1.5612,1.5611,0,1.5136,1.5132,1.5253,1.5283,1.5293,1.5377,1.5403,1.5471,1.5474,1.5568,1.5589,1.5595,1.5675,1.5671,1.5763,1.5758,1.59,1.5882,1.5886,1.5882,1.5978,1.597,1.6288,1.6329,1.6046,1.6049,1.6051,0,1.5274,1.5353,1.5391,1.5437,1.546,1.5535,1.5579,1.5561,1.5609,1.5663,1.5725,1.5801,1.5861,1.5993,1.6006,1.6077,1.606,1.6167,1.6071,1.6076,1.6063,1.6059,1.6067,1.6186,1.6189,1.6192,1.6194,0,1.552,1.5514,1.5578,1.5643,1.5696,1.5746,1.5792,1.5832,1.5819,1.5875,1.5957,1.6003,1.6097,1.6174,1.6241,1.6263,1.6228,1.6224,1.625,1.6259,1.6258,1.6261,1.5939,1.6217,1.6215,1.6213,1.6212,1.6211,1.5699,1.5767,1.5805,1.5878,1.5911,1.5955,1.602,1.6031,1.6098,1.6172,1.6157,1.6249,1.629,1.6377,1.6406,1.6478,1.644,1.6478,1.6487,1.6497,1.6508,1.6246,1.649,1.649,1.6489,1.6488,1.6488,0,1.5943,1.5965,1.6033,1.6098,1.6156,1.6116,1.6165,1.6217,1.6298,1.6338,1.6398,1.6493,1.6568,1.6587,1.6659,1.6714,1.6699,1.6733,1.673,1.6736,1.6538,1.6508,1.6744,1.6744,1.6744,1.6744,1.6744,1.6744,1.6078,1.6191,1.619,1.632,1.634,1.6429,1.6461,1.6502,1.6534,1.6641,1.6703,1.6714,1.6747,1.6821,1.6889,1.6892,1.6921,1.6963,1.696,1.6775,1.6749,1.6725,1.6697,1.6969,1.6969,1.7152,1.7154,1.7155]},{"header":{"parameterUnit":"m.s-1","parameterCategory":1,"la1":30.2991,"la2":30.254,"lo1":-89.0895,"lo2":-89.0444,"dy":0.0017,"dx":0.0017,"nx":28,"ny":28,"refTime":"2023-06-27T21:00:00:Z","depth":0,"parameterNumber":3,"parameterNumberName":"V-component_of_WINDS"},"data":[0,0,0,0,0,0,0,0,0,0,0,0,0,0,0,0,0,0,0,0,0,0,0,0,0,0,0,0,0,0,0,0,0,0,0,0,0,0,0,0,0,0,0,0,0,0,0,0,0,0,0,0,0,0,0,0,0,0,0.9648,0.9648,0,0.9707,0.9708,0.9709,0.9617,0.9614,0.9611,0.9608,0.9672,0.9677,0.9681,0,0,0,0,0,0,0,0,0,0,0,0,0,0.9456,0.946,0.9648,0.9648,0.9649,0.9707,0.9708,0.9709,0.9618,0.9614,0.961,0.9607,0.9671,0.9676,0.9682,0,0,0,0,0,0,0,0,0,0,0,0,0,0.953,0.9461,0.9647,0.9611,0.9608,0.9707,0.9708,0.9709,0.9619,0.9614,0.9609,0.9605,0.9669,0.9676,0.9683,0.9821,0,0,0.9704,0.9707,0,0,0,0,0,0,0,0,0.9526,0.9537,0.9615,0.9613,0.9611,0.965,0.9664,0.9747,0.962,0.9615,0.9608,0.9603,0.9669,0.9676,0.9697,0.9824,0.9827,0.9705,0.9709,0.9712,0.9714,0,0,0,0,0,0,0,0.9521,0.9534,0.9671,0.9617,0.9614,0.9592,0.9597,0.9679,0.9668,0.9615,0.9608,0.9617,0.9667,0.9691,0.9698,0.9828,0.9705,0.9711,0.9715,0.9718,1.0067,1.0072,0,0,0,0,0,0,0.952,0.953,0.9669,0.9673,0.9556,0.9599,0.9605,0.9642,0.9667,0.9666,0.9621,0.9612,0.9681,0.969,0.97,0.986,0.9712,0.9718,0.9723,1.0062,1.0068,1.0074,0,0,0,0,0,0,0.9516,0.9533,0.9667,0.96,0.9615,0.9607,0.965,0.9646,0.967,0.9671,0.9669,0.9647,0.9678,0.969,0.9791,0.9861,0.9722,0.9728,1.0056,1.0064,1.0071,1.0185,0,0,0,0,0,0,0.9511,0.9532,0.9585,0.9602,0.9619,0.9757,0.9655,0.965,0.9682,0.9671,0.9695,0.9695,0.9675,0.9781,0.9798,0.9869,0.9733,1.005,1.006,1.0069,1.0174,1.0195,1.0213,0,0,0,0,0,0.9505,0.9616,0.9588,0.9606,0.9685,0.9761,0.9771,0.9745,0.9688,0.974,0.974,0.9694,0.9852,0.9792,0.981,0.9884,1.0045,1.0057,1.0068,1.0166,1.0191,1.0212,0,0,0,0,0,0,0.961,0.9618,0.9587,0.9707,0.9734,0.9745,0.9811,0.9773,0.9817,0.9806,0.9773,0.9779,0.9886,0.9895,0.9829,1.0018,0.9939,0.9954,1.0007,1.0031,1.005,1.0044,0.9739,0,0,0,0,0,0.9647,0.9708,0.9712,0.9818,0.9832,0.982,0.9852,0.9829,0.9856,0.9867,0.9875,0.9903,0.9958,0.9996,1.0047,1.0176,1.0178,1.0236,1.0255,1.0271,1.0284,1.0349,1.0374,1.0111,1.0111,1.0111,0,0,0.9725,0.9737,0.9778,0.9839,0.9857,0.992,0.983,0.9902,0.9947,0.9878,0.9972,0.9979,1.0008,1.0122,1.0173,1.0133,1.0357,1.0285,1.0298,1.0303,1.0363,1.0388,1.041,1.0119,1.0117,1.0116,0,0,0.9898,0.9914,1.0002,1.0021,1.0048,1.0038,1.006,1.0076,1.0077,1.0171,1.0119,1.0174,1.0271,1.0292,1.0316,1.0494,1.0452,1.0512,1.0612,1.0676,1.0696,1.0714,1.0774,1.0797,1.0526,1.0526,1.0526,0,0.9991,1.0083,1.0052,1.0126,1.0153,1.0092,1.018,1.02,1.0244,1.0264,1.022,1.0337,1.0353,1.0469,1.0512,1.0535,1.0556,1.0508,1.0696,1.0714,1.073,1.0787,1.081,1.0533,1.0532,1.0531,1.0531,0,1.0195,1.0259,1.0327,1.0368,1.0403,1.0484,1.0465,1.0505,1.0479,1.0474,1.0568,1.0584,1.0636,1.0662,1.0639,1.0775,1.0749,1.0701,1.062,1.0762,1.0815,1.0837,1.0543,1.054,1.0538,1.0537,0,0,1.0436,1.0456,1.0481,1.0497,1.0522,1.0571,1.0649,1.0697,1.073,1.0763,1.0825,1.0907,1.0861,1.0888,1.0867,1.0923,1.1058,1.0867,1.0867,1.0899,1.1205,1.1238,1.1264,1.1031,1.1035,1.1039,1.1201,0,1.0605,1.0737,1.071,1.0839,1.0896,1.0838,1.0904,1.0926,1.0923,1.0972,1.0969,1.1026,1.0963,1.0978,1.1032,1.1031,1.1119,1.1019,1.1087,1.109,1.1079,1.1293,1.1329,1.1482,1.1222,1.1225,1.1228,0,1.082,1.0857,1.0991,1.1002,1.1025,1.1086,1.1126,1.1174,1.1197,1.1191,1.122,1.1186,1.1262,1.1182,1.1284,1.1217,1.1243,1.1247,1.1252,1.1255,1.1166,1.1299,1.153,1.1552,1.1261,1.1258,1.1256,0,1.0978,1.1062,1.1151,1.1167,1.1184,1.1228,1.1237,1.1255,1.1285,1.1321,1.1339,1.1385,1.1409,1.1445,1.1424,1.1368,1.1529,1.1448,1.1524,1.1524,1.1558,1.1556,1.1795,1.1581,1.1581,1.158,1.158,0,1.1168,1.1252,1.1222,1.1277,1.1368,1.1336,1.1427,1.143,1.1446,1.1499,1.1453,1.1505,1.1475,1.1525,1.1509,1.1594,1.1607,1.1602,1.1597,1.1605,1.1605,1.162,1.1607,1.1586,1.1585,1.1584,1.1583,0,1.136,1.1343,1.1436,1.1444,1.1447,1.1514,1.152,1.157,1.1563,1.1632,1.1646,1.1635,1.169,1.1673,1.1733,1.1722,1.1829,1.1812,1.1821,1.1815,1.189,1.1882,1.2145,1.2176,1.1945,1.1947,1.1949,0,1.148,1.1542,1.1555,1.1587,1.1599,1.1652,1.1681,1.1652,1.1684,1.1713,1.176,1.1811,1.1849,1.194,1.1937,1.1982,1.1963,1.2052,1.197,1.1974,1.196,1.1955,1.196,1.2068,1.207,1.2072,1.2074,0,1.1695,1.1683,1.1726,1.1766,1.1802,1.1833,1.1859,1.1888,1.1861,1.1899,1.1954,1.1984,1.2043,1.2093,1.2133,1.2142,1.2103,1.21,1.2119,1.2127,1.2128,1.2125,1.1862,1.2094,1.2092,1.209,1.2089,1.2089,1.1853,1.1903,1.1919,1.1968,1.1984,1.2009,1.2056,1.2053,1.2098,1.2143,1.2123,1.2186,1.2204,1.2254,1.2268,1.2316,1.2282,1.2311,1.2317,1.2324,1.2332,1.2123,1.2324,1.2323,1.2323,1.2322,1.2322,0,1.2062,1.2068,1.2114,1.215,1.2188,1.2148,1.2174,1.2208,1.2263,1.2283,1.2321,1.2382,1.243,1.243,1.2474,1.2512,1.2495,1.2524,1.2519,1.2521,1.2362,1.2339,1.2537,1.2537,1.2536,1.2536,1.2536,1.2536,1.2175,1.2257,1.2247,1.2336,1.2343,1.2402,1.242,1.2442,1.2457,1.2527,1.2565,1.2565,1.2576,1.262,1.2661,1.266,1.2676,1.2712,1.2704,1.2554,1.2533,1.2513,1.2491,1.2717,1.2717,1.2858,1.286,1.2861]}]]